TimeCST,TemperatureF,Dew PointF,Humidity,Sea Level PressureIn,VisibilityMPH,Wind Direction,Wind SpeedMPH,Gust SpeedMPH,PrecipitationIn,Events,Conditions,WindDirDegrees,DateUTC
12:53 AM,24.1,15.1,69,30.49,10.0,Calm,Calm,-,N/A,,Clear,0,2014-01-08 06:53:00
1:53 AM,21.9,15.1,75,30.48,10.0,Calm,Calm,-,N/A,,Clear,0,2014-01-08 07:53:00
2:53 AM,25.0,12.9,60,30.48,10.0,Calm,Calm,-,N/A,,Clear,0,2014-01-08 08:53:00
3:53 AM,21.9,16.0,78,30.46,10.0,Calm,Calm,-,N/A,,Clear,0,2014-01-08 09:53:00
4:53 AM,19.9,16.0,85,30.45,10.0,Calm,Calm,-,N/A,,Mostly Cloudy,0,2014-01-08 10:53:00
5:53 AM,24.1,17.1,75,30.44,10.0,Calm,Calm,-,N/A,,Clear,0,2014-01-08 11:53:00
6:53 AM,23.0,16.0,74,30.45,10.0,Calm,Calm,-,N/A,,Clear,0,2014-01-08 12:53:00
7:53 AM,27.0,17.1,66,30.46,10.0,ESE,4.6,-,N/A,,Overcast,110,2014-01-08 13:53:00
8:53 AM,30.9,18.0,59,30.48,10.0,South,8.1,-,N/A,,Overcast,170,2014-01-08 14:53:00
9:53 AM,33.1,15.1,48,30.48,10.0,SE,6.9,-,N/A,,Overcast,140,2014-01-08 15:53:00
10:53 AM,37.0,12.9,37,30.46,10.0,SE,6.9,-,N/A,,Overcast,140,2014-01-08 16:53:00
11:53 AM,37.9,12.0,35,30.42,10.0,SE,6.9,-,0.02,,Overcast,130,2014-01-08 17:53:00
12:53 PM,39.9,12.9,33,30.38,10.0,SSE,5.8,-,N/A,,Overcast,150,2014-01-08 18:53:00
1:53 PM,42.1,14.0,32,30.36,10.0,ESE,4.6,-,N/A,,Overcast,120,2014-01-08 19:53:00
2:53 PM,43.0,12.9,30,30.35,10.0,SSE,6.9,-,N/A,,Overcast,150,2014-01-08 20:53:00
3:53 PM,43.0,17.1,35,30.34,10.0,ESE,4.6,-,0.00,,Overcast,110,2014-01-08 21:53:00
4:53 PM,42.1,18.0,38,30.34,10.0,Calm,Calm,-,0.00,,Overcast,0,2014-01-08 22:53:00
5:53 PM,42.1,19.9,41,30.33,10.0,Calm,Calm,-,0.00,Rain,Light Rain,0,2014-01-08 23:53:00
6:53 PM,41.0,27.0,57,30.32,10.0,Calm,Calm,-,0.00,,Overcast,0,2014-01-09 00:53:00
7:53 PM,39.0,30.9,73,30.33,10.0,Calm,Calm,-,0.00,,Overcast,0,2014-01-09 01:53:00
8:53 PM,41.0,32.0,70,30.35,10.0,Calm,Calm,-,N/A,,Overcast,0,2014-01-09 02:53:00
9:53 PM,39.0,30.9,73,30.34,10.0,ESE,6.9,-,0.02,,Overcast,110,2014-01-09 03:53:00
10:53 PM,39.9,30.9,70,30.34,10.0,Calm,Calm,-,0.00,,Overcast,0,2014-01-09 04:53:00
11:53 PM,39.0,34.0,82,30.34,10.0,Calm,Calm,-,0.00,Rain,Light Rain,0,2014-01-09 05:53:00